Content
SEND FEEDBACK

Daily
Averages
Monthly
Summary
United States of America

DES PLAINES, ILLINOIS


Home > North America > United States > Illinois
Elevation: 651 feet     Latitude: 42 00N     Longitude: 087 54W

WEATHER
 
SELECT A DAY
Number of Records: 194,730;   Date Range: 7/8/95 - 7/7/14
 
SHARE

PRINT THIS DATA

[ ← Previous Day ]
WEATHER ALMANAC - OCTOBER 18, 2013
[ Next Day → ]
[ °C ]   °F
Weather ElementAverageHighLow
Temperature46.4 °F51.1 °F (1:52 pm)39 °F (4:52 am)
Dewpoint38.5 °F42.1 °F (10:52 am)36 °F (4:52 am)
Humidity74.7 %89 % (2:52 am)62 % (3:25 pm)
Barometer29.93 in29.99 in (7:52 pm)29.86 in (2:52 am)
Wind Speed7.2 mph13.8 mph (12:52 pm)
Wind Gust20.7 mph (9:16 am)
Weather ElementAverage
Visibility8.8 mi
Wind DirectionSW (220 °)

Weather ElementTotal
Precipitation---
Heating Degree Days20 (Base 65)
Averaged from 28 records on October 18, 2013
WEATHER CONDITIONS BREAKOUT
WIND DIRECTION BREAKOUT
WEATHER BY HOUR - OCTOBER 18, 2013
[ °C ]   °F
Local TimeTemperatureDewpointHumidityBarometerVisibilityWind DirectionWind SpeedGust SpeedPrecipitationEventsConditions
1:52 AM42.1 °F37.9 °F85 %29.87 in8.0 miCalmClear
2:52 AM41.0 °F37.9 °F89 %29.86 in6.0 miCalmPartly Cloudy
3:52 AM39.9 °F37.0 °F89 %29.86 in6.0 miCalmScattered Clouds
4:52 AM39.0 °F36.0 °F89 %29.86 in7.0 miCalmClear
5:52 AM39.0 °F36.0 °F89 %29.86 in8.0 miSouth (180°)3.5 mphClear
6:52 AM39.9 °F36.0 °F86 %29.88 in8.0 miSouth (180°)3.5 mphClear
7:52 AM43.0 °F37.0 °F80 %29.89 in8.0 miWest (260°)3.5 mphClear
8:52 AM46.9 °F39.9 °F77 %29.92 in8.0 miWNW (290°)9.2 mphClear
9:16 AM46.4 °F39.2 °F76 %29.92 in8.0 miWNW (290°)11.5 mph20.7 mphMostly Cloudy
9:47 AM46.4 °F41.0 °F81 %29.94 in7.0 miWest (270°)12.7 mph19.6 mphOvercast
9:52 AM46.0 °F41.0 °F83 %29.95 in7.0 miWest (270°)12.7 mph20.7 mphOvercast
10:52 AM46.9 °F42.1 °F83 %29.95 in8.0 miWest (260°)5.8 mphOvercast
10:56 AM46.4 °F41.0 °F81 %29.94 in8.0 miWSW (250°)9.2 mphOvercast
11:47 AM48.2 °F41.0 °F76 %29.94 in10.0 miWest (270°)12.7 mph18.4 mphOvercast
11:52 AM48.0 °F41.0 °F77 %29.95 in10.0 miWest (270°)11.5 mph18.4 mphOvercast
12:52 PM50.0 °F39.9 °F68 %29.94 in10.0 miWest (280°)13.8 mphOvercast
1:52 PM51.1 °F39.0 °F63 %29.93 in10.0 miWSW (250°)11.5 mphOvercast
2:52 PM50.0 °F37.9 °F63 %29.94 in10.0 miWest (260°)9.2 mph19.6 mphOvercast
3:25 PM50.0 °F37.4 °F62 %29.93 in10.0 miWest (260°)10.4 mphOvercast
3:52 PM50.0 °F37.9 °F63 %29.95 in10.0 miWest (280°)11.5 mph16.1 mphOvercast
4:52 PM50.0 °F37.9 °F63 %29.95 in10.0 miWest (270°)13.8 mphOvercast
5:52 PM48.9 °F37.0 °F64 %29.97 in10.0 miWest (270°)6.9 mphOvercast
6:52 PM48.9 °F37.0 °F64 %29.98 in10.0 miWest (270°)4.6 mphOvercast
7:52 PM48.9 °F37.9 °F66 %29.99 in10.0 miWest (260°)4.6 mphOvercast
8:52 PM48.0 °F37.9 °F68 %29.97 in10.0 miWSW (250°)3.5 mphOvercast
9:52 PM48.0 °F37.9 °F68 %29.97 in10.0 miWest (260°)4.6 mphOvercast
10:52 PM48.0 °F37.9 °F68 %29.97 in10.0 miSW (230°)5.8 mphOvercast
11:52 PM46.9 °F37.9 °F71 %29.96 in10.0 miSW (230°)4.6 mphOvercast
Hourly data recorded from KPWK, located miles away from Des Plaines, Illinois







STORIES FROM OUR PARTNERS